Orbital elements:  CEA29P2
   Perihelion 2026 Apr 21.970952 +/- 0.00261 TT = 23:18:10.2 (JD 2461152.470952)
Epoch 2026 Mar 10.0 TT = JDT 2461109.5   Earth MOID: 0.0021   Ma: 0.0129
M 336.388180525 +/- 0.009           (J2000 ecliptic)             AutoNEOCP
n   0.549483278 +/- 0.000188        Peri.  234.789602 +/- 0.0015
a   1.476272042 +/- 0.000336        Node   348.726746 +/- 0.00010
e   0.39852335 +/- 0.000162         Incl.    2.026256 +/- 0.0006
P   1.794/655.149d         H 27.22  G  0.15   U  7.0
q 0.887943159 +/- 3.76e-5    Q 2.064600926 +/- 0.00071
72 of 74 observations 2026 Mar. 8-10 (45.4 hr); mean residual 0".28
Residuals in arcseconds: 
260308 G96  .05-  .09-    260308 204  .00   .00     260309 U74  .24-  .23-    
260308 G96  .19-  .09+    260308 M45  .21-  .07-    260309 U74  .38+  .17-    
260308 G96  .05+  .02-    260308 M45  .49-  .07+    260309 Q06  .33+  .64+    
260308 G96  .30-  .20+    260308 204  .06-  .12+    260309 Q06  .43+  .13+    
260308 H01  .11+  .08-    260308 M45  .42-  .11-    260309 L38  .17+  .24-    
260308 H01  .11+  .02-    260308 L06  .25+  .43-    260309 M35  .04-  .34-    
260308 H01  .06+  .02+    260308 L06  .20+  .31-    260309 L38  .08+  .24-    
260308 H01  .02+  .05+    260308 L06  .16-  .20-    260309 L38  .16+  .46-    
260308 691  .18+  .08+    260308 204  .03+  .16+    260309 M35  .53-  .00     
260308 691  .18+  .08+    260308 104  .04-  .27+    260309 M35  .23-  .12-    
260308 691  .63+  .01-    260308 104  .25-  .53-    260309 G02  .01+  .20-    
260308 691  .63+  .01-    260308 104  .24+  .13+    260309 G02  .01+  .06+    
260308 691  .48+  .04+    260308 B67  .23-  .82+    260309 G02  .05+  .03-    
260308 691  .48+  .04+    260308 B67  .16-  .93+    260309 C82( .98+  2.7+)   
260308 I52  .20-  .03-    260308 B67( .58+  1.6+)   260309 C82  .50+  .51+    
260308 I52  .30-  .22+    260309 807  .30-  .17-    260309 I93  .06+  .01-    
260308 I52  .33-  .65+    260309 807  .10-  .22-    260309 I93  .03+  .00     
260308 I52  .35+  .41-    260309 807  .13-  .13-    260309 I93  .16-  .19+    
260308 L04  .17+  .18+    260309 W13  .41-  .17-    260309 126  .13-  .08+    
260308 L04  .35+  .56-    260309 W13  .31+  .20-    260310 126  .11-  .29+    
260308 K78  .02-  .48-    260309 W13  .32+  .24+    260310 126  .33-  .04+    
260308 K78  .11+  .10-    260309 H21  .17-  .07+    260310 H21  .08-  .02+    
260308 L38  .44+  .28-    260309 H21  .09-  .18+    260310 H21  .06-  .21-    
260308 L38  .16-  .10-    260309 U52  .02-  .04+    260310 H21  .02+  .19-    
260308 L38  .75-  .13+    260309 U52  .56+  .06-    

Ephemerides (geocentric):
Date (UTC) HH   RA             Dec           delta  r     elong  mag " sig PA
---- --------  ------------   ------------  ------ ------ -----  --- --------
2026 03 10 07  10 13 23.188   +10 10 39.89  .01583 1.0082 162.2 19.2 .159 165
2026 03 10 08  10 13 14.991   +10 04 06.27  .01560 1.0080 162.2 19.1 .169 166
2026 03 10 09  10 13 06.562   +09 57 20.99  .01537 1.0077 162.2 19.1 .179 167
2026 03 10 10  10 12 57.890   +09 50 23.55  .01515 1.0075 162.1 19.1 .191 168
2026 03 10 11  10 12 48.964   +09 43 13.39  .01492 1.0073 162.1 19.0 .203 169
2026 03 10 12  10 12 39.774   +09 35 49.92  .01469 1.0071 162.0 19.0 .216 170
2026 03 10 13  10 12 30.306   +09 28 12.54  .01447 1.0069 162.0 19.0 .231 171
2026 03 10 14  10 12 20.549   +09 20 20.58  .01424 1.0067 162.0 18.9 .246 172
2026 03 10 15  10 12 10.488   +09 12 13.33  .01401 1.0065 161.9 18.9 .263 172
2026 03 10 16  10 12 00.108   +09 03 50.06  .01379 1.0063 161.9 18.9 .281 173
2026 03 10 17  10 11 49.394   +08 55 09.97  .01356 1.0061 161.8 18.8 .300 174
2026 03 10 18  10 11 38.330   +08 46 12.20  .01334 1.0059 161.8 18.8 .321 175
2026 03 10 19  10 11 26.897   +08 36 55.87  .01311 1.0057 161.7 18.8 .344 176
2026 03 10 20  10 11 15.077   +08 27 19.99  .01288 1.0055 161.7 18.7 .368 177
2026 03 10 21  10 11 02.849   +08 17 23.53  .01266 1.0053 161.6 18.7 .395 177
2026 03 10 22  10 10 50.191   +08 07 05.38  .01243 1.0050 161.6 18.6 .423 178
2026 03 10 23  10 10 37.081   +07 56 24.36  .01221 1.0048 161.5 18.6 .454 179
2026 03 11 00  10 10 23.493   +07 45 19.18  .01198 1.0046 161.4 18.6 .488   0
2026 03 11 01  10 10 09.401   +07 33 48.47  .01176 1.0044 161.4 18.5 .524   0
2026 03 11 02  10 09 54.775   +07 21 50.75  .01153 1.0042 161.3 18.5 .563   1
2026 03 11 03  10 09 39.585   +07 09 24.43  .01131 1.0040 161.2 18.5 .605   1
2026 03 11 04  10 09 23.796   +06 56 27.79  .01108 1.0038 161.2 18.4 .651   2
2026 03 11 05  10 09 07.373   +06 42 58.97  .01086 1.0036 161.1 18.4 .700   3
2026 03 11 06  10 08 50.277   +06 28 55.96  .01063 1.0034 161.0 18.3 .754   3
2026 03 11 07  10 08 32.463   +06 14 16.58  .01041 1.0032 160.9 18.3 .813   4
2026 03 11 08  10 08 13.887   +05 58 58.46  .01018 1.0030 160.8 18.2 .876   4
2026 03 11 09  10 07 54.498   +05 42 59.02  .00996 1.0028 160.7 18.2 .945   5
2026 03 11 10  10 07 34.241   +05 26 15.48  .00974 1.0026 160.6 18.1 1.02   5
2026 03 11 11  10 07 13.055   +05 08 44.75  .00951 1.0024 160.5 18.1 1.10   6
2026 03 11 12  10 06 50.877   +04 50 23.52  .00929 1.0022 160.4 18.0 1.19   6
2026 03 11 13  10 06 27.633   +04 31 08.12  .00907 1.0020 160.3 18.0 1.29   7
2026 03 11 14  10 06 03.244   +04 10 54.53  .00884 1.0018 160.2 17.9 1.40   7
2026 03 11 15  10 05 37.625   +03 49 38.35  .00862 1.0015 160.0 17.9 1.51   7
2026 03 11 16  10 05 10.678   +03 27 14.73  .00840 1.0013 159.9 17.8 1.64   8
2026 03 11 17  10 04 42.298   +03 03 38.31  .00818 1.0011 159.7 17.8 1.78   8
2026 03 11 18  10 04 12.367   +02 38 43.16  .00796 1.0009 159.5 17.7 1.94   9
2026 03 11 19  10 03 40.755   +02 12 22.73  .00774 1.0007 159.3 17.7 2.11   9
2026 03 11 20  10 03 07.314   +01 44 29.71  .00752 1.0005 159.1 17.6 2.30   9
2026 03 11 21  10 02 31.881   +01 14 56.00  .00730 1.0003 158.9 17.6 2.50  10
2026 03 11 22  10 01 54.273   +00 43 32.53  .00708 1.0001 158.6 17.5 2.73  10
2026 03 11 23  10 01 14.283   +00 10 09.17  .00686 0.9999 158.3 17.5 2.99  10
2026 03 12 00  10 00 31.678   -00 25 25.46  993968 0.9997 158.0 17.4 3.28  10
2026 03 12 01  09 59 46.192   -01 03 24.13  961567 0.9995 157.7 17.3 3.59  11
2026 03 12 02  09 58 57.522   -01 44 01.28  929298 0.9993 157.3 17.3 3.95  11
2026 03 12 03  09 58 05.323   -02 27 33.19  897175 0.9991 156.9 17.2 4.35  11
2026 03 12 04  09 57 09.197   -03 14 18.35  865215 0.9989 156.4 17.1 4.79  12
2026 03 12 05  09 56 08.684   -04 04 37.75  833437 0.9987 155.9 17.1 5.29  12
2026 03 12 06  09 55 03.250   -04 58 55.31  801863 0.9985 155.3 17.0 5.86  12